Kodiak, AK

2:18 AM AKST on February 23, 2017 (GMT -0900)
Kodiak

Weather History for PADQ - March, 2014

Change the Weather History Date:

Tuesday, March 25, 2014

  Actual Average Record
Temperature  
Mean Temperature 36 °F 34 °F  
Max Temperature 44 °F 39 °F 54 °F (1924)
Min Temperature 28 °F 28 °F 3 °F (1975)
Degree Days  
Heating Degree Days 29 31  
Month to date heating degree days 790 812  
Since 1 July heating degree days 6076 6685  
Cooling Degree Days 0    
Month to date cooling degree days 0  
Year to date cooling degree days 0  
Moisture  
Dew Point 21 °F    
Average Humidity 0    
Maximum Humidity 0    
Minimum Humidity 0    
Precipitation  
Precipitation 0.00 in 0.18 in 2.57 in (2001)
Month to date precipitation 3.96 4.47  
Year to date precipitation 25.21 18.90  
Snow  
Snow 0.00 in 0.30 in 7.80 in (1967)
Month to date snowfall 11.5 9.1  
Snow Depth 0.00 in    
Sea Level Pressure  
Sea Level Pressure 29.83 in    
Wind  
Wind Speed 8 mph (WNW)    
Max Wind Speed 20 mph    
Max Gust Speed 25 mph    
Visibility 10 miles    
Events      
T = Trace of Precipitation, MM = Missing Value Source: NWS Daily Summary

Daily Weather History Graph

Daily Weather History Graph

Search for Another Location

Airport or City:

Trip Planner

Search our weather history database for the weather conditions in past years. The results will help you decide how hot, cold, wet, or windy it might be!

Date:

Astronomy

Mar. 25, 2014 Rise Set
Actual Time 7:57 AM AKDT 8:35 PM AKDT
Civil Twilight 7:18 AM AKDT 9:15 PM AKDT
Nautical Twilight 6:30 AM AKDT 10:02 PM AKDT
Astronomical Twilight 5:38 AM AKDT 10:54 PM AKDT
Moon 5:29 AM AKDT (3/25) 2:18 PM AKDT (3/25)
Length of Visible Light 13h 57m
Length of Day
12h 38m
Waning Crescent, 30% of the Moon is Illuminated
Mar 25
Waning Crescent
Mar 30
New
Apr 7
First Quarter
Apr 14
Full
Apr 21
Last Quarter

Hourly Weather History & Observations

Time (AKDT) Temp. Windchill Dew Point Humidity Pressure Visibility Wind Dir Wind Speed Gust Speed Precip Events Conditions
12:53 AM 30.0 °F 25.2 °F 26.1 °F 85% 29.94 in 10.0 mi West 4.6 mph - N/A   Mostly Cloudy
1:06 AM 30.2 °F 25.4 °F 26.6 °F 86% 29.93 in 10.0 mi WNW 4.6 mph - N/A   Mostly Cloudy
1:53 AM 30.9 °F 26.2 °F 27.0 °F 85% 29.92 in 10.0 mi West 4.6 mph - N/A   Overcast
2:53 AM 30.0 °F 25.2 °F 25.0 °F 82% 29.92 in 10.0 mi West 4.6 mph - N/A   Partly Cloudy
3:53 AM 30.9 °F 23.5 °F 23.0 °F 72% 29.90 in 10.0 mi NW 8.1 mph - N/A   Clear
4:53 AM 32.0 °F 25.6 °F 19.9 °F 61% 29.89 in 10.0 mi WNW 6.9 mph - N/A   Clear
5:53 AM 30.9 °F 24.3 °F 18.0 °F 59% 29.87 in 10.0 mi WNW 6.9 mph - N/A   Clear
6:53 AM 32.0 °F 24.2 °F 16.0 °F 52% 29.86 in 10.0 mi NW 9.2 mph - N/A   Partly Cloudy
7:53 AM 32.0 °F 22.5 °F 17.1 °F 54% 29.85 in 10.0 mi WNW 12.7 mph - N/A   Partly Cloudy
8:53 AM 33.1 °F 23.9 °F 19.0 °F 56% 29.85 in 10.0 mi WNW 12.7 mph - N/A   Clear
9:53 AM 35.1 °F 28.6 °F 21.0 °F 57% 29.85 in 10.0 mi NW 8.1 mph - N/A   Clear
10:53 AM 37.0 °F 30.4 °F 21.9 °F 54% 29.84 in 10.0 mi NW 9.2 mph - N/A   Clear
11:53 AM 39.0 °F 31.4 °F 21.9 °F 50% 29.83 in 10.0 mi WNW 12.7 mph 23.0 mph N/A   Clear
12:53 PM 41.0 °F 32.5 °F 21.9 °F 47% 29.82 in 10.0 mi WNW 17.3 mph 23.0 mph N/A   Clear
1:53 PM 41.0 °F 33.9 °F 21.9 °F 47% 29.82 in 10.0 mi WNW 12.7 mph - N/A   Clear
2:53 PM 43.0 °F 37.2 °F 21.9 °F 43% 29.81 in 10.0 mi WNW 10.4 mph 18.4 mph N/A   Clear
3:53 PM 44.1 °F 38.6 °F 21.9 °F 42% 29.80 in 10.0 mi WNW 10.4 mph 17.3 mph N/A   Clear
4:53 PM 44.1 °F 40.8 °F 21.9 °F 42% 29.79 in 10.0 mi Variable 5.8 mph - N/A   Clear
5:53 PM 44.1 °F 40.8 °F 21.0 °F 40% 29.78 in 10.0 mi Variable 5.8 mph - N/A   Partly Cloudy
6:53 PM 42.1 °F 36.6 °F 21.9 °F 45% 29.78 in 10.0 mi West 9.2 mph - N/A   Partly Cloudy
7:53 PM 37.9 °F 35.5 °F 21.0 °F 51% 29.77 in 10.0 mi West 3.5 mph - N/A   Partly Cloudy
8:53 PM 35.1 °F - 19.9 °F 54% 29.78 in 10.0 mi Calm Calm - N/A   Partly Cloudy
9:53 PM 32.0 °F 27.5 °F 19.0 °F 59% 29.77 in 10.0 mi West 4.6 mph - N/A   Partly Cloudy
10:53 PM 30.9 °F - 19.0 °F 61% 29.77 in 10.0 mi Calm Calm - N/A   Clear
11:53 PM 28.0 °F - 18.0 °F 66% 29.75 in 10.0 mi Calm Calm - N/A   Clear